GW3318 Weather Reports


time (UTC)temp
C
wind
direction
speed
KPH
gust
KPH
rain 1hr
cm
rain 24hr
cm
rain mn
cm
humidity
%
barometer
mb
20260509064816 23 41 9.7 16.1 0.00 4.50 4.47 84 1013.6
20260509064316 23 29 9.7 16.1 0.00 4.50 4.47 84 1013.6
20260509063816 23 41 6.4 12.9 0.00 4.50 4.47 85 1013.7
20260509063317 23 38 9.7 19.3 0.00 4.50 4.47 84 1013.8
20260509062815 23 48 8.0 19.3 0.00 4.50 4.47 84 1013.9
20260509062317 23 50 11.3 19.3 0.00 4.50 4.47 84 1013.9
20260509061815 23 39 8.0 20.9 0.00 4.50 4.47 84 1014.0
20260509061316 24 48 9.7 20.9 0.00 4.50 4.47 83 1014.1
20260509060316 24 80 9.7 19.3 0.00 4.50 4.47 83 1014.2
20260509055316 23 97 8.0 19.3 0.00 4.50 4.47 84 1014.2
20260509054817 23 30 8.0 19.3 0.00 4.50 4.47 85 1014.2
20260509054316 23 43 4.8 14.5 0.00 4.50 4.47 86 1014.2
20260509053315 23 53 8.0 19.3 0.00 4.50 4.47 85 1014.6
20260509052816 23 49 8.0 16.1 0.00 4.50 4.47 86 1014.6
20260509052316 23 57 8.0 19.3 0.00 4.50 4.47 86 1014.7
20260509051816 23 59 9.7 19.3 0.00 4.50 4.47 85 1014.8
20260509051316 23 52 8.0 14.5 0.00 4.50 4.47 86 1014.9
20260509050816 23 46 9.7 19.3 0.00 4.50 4.47 85 1015.0
20260509050316 23 55 8.0 14.5 0.00 4.50 4.47 85 1014.9
20260509045816 23 22 8.0 16.1 0.00 4.50 4.47 86 1014.9
20260509045316 23 27 9.7 20.9 0.00 4.50 4.47 86 1015.0
20260509044816 23 44 12.9 20.9 0.00 4.50 4.47 85 1015.0
20260509044316 23 40 8.0 19.3 0.00 4.50 4.47 86 1015.1
20260509043316 23 24 8.0 19.3 0.00 4.50 4.47 86 1015.1
20260509042816 23 55 8.0 14.5 0.00 4.50 4.47 86 1015.2
20260509041816 23 45 6.4 12.9 0.00 4.50 4.47 86 1015.4
20260509041315 23 43 9.7 19.3 0.00 4.50 4.47 86 1015.5
20260509040817 23 64 8.0 14.5 0.00 4.50 4.47 86 1015.5
20260509040315 23 5 6.4 16.1 0.00 4.50 4.47 86 1015.5
20260509035818 23 13 11.3 20.9 0.00 4.50 4.47 86 1015.3
20260509035315 23 41 9.7 25.7 0.00 4.50 4.47 86 1015.4
20260509034817 23 45 9.7 19.3 0.00 4.50 4.47 86 1015.4
20260509034315 23 51 9.7 20.9 0.00 4.50 4.47 86 1015.4
20260509033816 23 32 9.7 22.5 0.00 4.50 4.47 86 1015.4
20260509032815 23 34 6.4 16.1 0.00 4.50 4.47 87 1015.5
20260509032316 23 38 11.3 19.3 0.00 4.50 4.47 86 1015.5
20260509031816 23 36 9.7 20.9 0.00 4.50 4.47 86 1015.5
20260509030816 23 30 8.0 19.3 0.00 4.50 4.47 86 1015.6
20260509025816 23 35 11.3 24.1 0.00 4.50 4.47 86 1015.6
20260509025317 23 51 11.3 22.5 0.00 4.50 4.47 86 1015.6
20260509024816 24 43 9.7 24.1 0.00 4.50 4.47 86 1015.6
20260509024315 24 46 9.7 22.5 0.00 4.50 4.47 85 1015.5
20260509023316 24 50 9.7 20.9 0.00 4.50 4.47 84 1015.5
20260509022816 24 35 11.3 27.4 0.00 4.50 4.47 85 1015.4
20260509022316 24 39 9.7 22.5 0.00 4.50 4.47 86 1015.4
20260509021816 23 37 11.3 27.4 0.00 4.50 4.47 86 1015.6
20260509021316 23 39 12.9 27.4 0.00 4.50 4.47 86 1015.5
20260509020817 23 34 11.3 22.5 0.00 4.50 4.47 87 1015.6
20260509020315 23 34 8.0 24.1 0.00 4.50 4.47 87 1015.7
20260509015815 23 29 12.9 29.0 0.00 4.50 4.47 88 1015.7
20260509015317 23 28 14.5 25.7 0.00 4.50 4.47 87 1015.8
20260509014816 23 37 11.3 25.7 0.00 4.50 4.47 88 1015.8
20260509014315 23 45 11.3 22.5 0.00 4.50 4.47 87 1015.8
20260509013815 23 43 11.3 24.1 0.00 4.50 4.47 88 1015.7
20260509013315 23 44 8.0 24.1 0.00 4.50 4.47 88 1015.7
20260509012816 23 29 11.3 25.7 0.00 4.50 4.47 87 1015.7
20260509012315 23 26 9.7 29.0 0.00 4.50 4.47 88 1015.6
20260509011816 23 44 11.3 22.5 0.00 4.50 4.47 89 1015.5
20260509011316 23 39 11.3 25.7 0.00 4.50 4.47 89 1015.6
20260509010815 23 50 11.3 25.7 0.00 4.50 4.47 88 1015.6
20260509005815 23 56 11.3 22.5 0.03 4.50 4.47 89 1015.5
20260509005316 23 77 8.0 25.7 0.03 4.50 4.47 90 1015.4
20260509004815 23 40 11.3 25.7 0.03 4.50 4.47 90 1015.3
20260509004316 23 55 9.7 25.7 0.03 4.50 4.47 90 1015.2
20260509003816 23 58 11.3 24.1 0.03 4.50 4.47 91 1015.0
20260509003315 22 45 8.0 19.3 0.03 4.50 4.47 91 1015.0
20260509002815 22 54 9.7 20.9 0.05 4.50 4.47 91 1014.9
20260509002315 22 54 9.7 19.3 0.05 4.50 4.47 91 1014.8
20260509001815 22 41 11.3 22.5 0.05 4.50 4.47 91 1014.6
20260509001315 22 78 11.3 22.5 0.08 4.50 4.47 91 1014.5
20260509000816 22 62 12.9 25.7 0.08 4.50 4.47 92 1014.5
20260509000315 22 49 16.1 24.1 0.08 4.47 4.45 92 1014.4
20260508235816 22 45 11.3 20.9 0.08 4.47 4.45 92 1014.5
20260508235315 22 56 9.7 25.7 0.08 4.47 4.45 92 1014.5
20260508234815 22 44 11.3 22.5 0.08 4.47 4.45 92 1014.5
20260508234315 22 48 11.3 22.5 0.10 4.47 4.45 92 1014.5
20260508233816 22 48 11.3 19.3 0.10 4.47 4.45 92 1014.6
20260508233315 22 32 9.7 25.7 0.10 4.47 4.45 92 1014.6
20260508232315 22 48 6.4 16.1 0.13 4.45 4.42 92 1014.5
20260508231815 22 48 11.3 24.1 0.15 4.45 4.42 92 1014.4
20260508231315 22 41 9.7 20.9 0.13 4.42 4.39 92 1014.4
20260508230815 22 10 8.0 22.5 0.13 4.42 4.39 93 1014.3
20260508230315 22 144 8.0 22.5 0.13 4.39 4.37 92 1014.1
20260508225815 22 34 8.0 25.7 0.13 4.39 4.37 93 1014.1
20260508224815 22 310 8.0 24.1 0.18 4.39 4.37 93 1013.9
20260508223815 22 54 6.4 20.9 0.15 4.37 4.34 93 1013.9
20260508223315 22 56 9.7 19.3 0.15 4.37 4.34 93 1013.8
20260508222815 22 46 8.0 22.5 0.13 4.34 4.32 92 1013.6
20260508222315 22 330 6.4 20.9 0.13 4.32 4.29 92 1013.7
20260508221816 22 30 14.5 25.7 0.10 4.29 4.27 92 1013.7
20260508221315 22 98 4.8 16.1 0.10 4.29 4.27 92 1013.5
20260508220815 22 79 8.0 20.9 0.10 4.29 4.27 92 1013.4
20260508220315 22 52 11.3 32.2 0.08 4.27 4.24 92 1013.4
20260508215815 22 29 11.3 27.4 0.08 4.27 4.24 92 1013.3
20260508215315 22 41 12.9 29.0 0.05 4.24 4.22 92 1013.3
20260508214815 22 66 3.2 14.5 0.03 4.22 4.19 93 1013.1
20260508214315 22 76 11.3 22.5 0.03 4.22 4.19 92 1013.2
20260508213815 22 37 11.3 22.5 0.03 4.22 4.19 92 1013.2
20260508213315 22 78 4.8 14.5 0.03 4.22 4.19 93 1013.2
20260508212815 22 61 11.3 24.1 0.05 4.22 4.19 92 1013.1
20260508212315 22 34 11.3 25.7 0.03 4.19 4.17 92 1013.0
20260508211815 22 39 4.8 19.3 0.05 4.19 4.17 93 1013.0
20260508211316 23 31 8.0 27.4 0.05 4.19 4.17 92 1012.9
20260508210815 23 37 9.7 19.3 0.08 4.19 4.17 92 1012.9
20260508210315 22 115 9.7 24.1 0.13 4.19 4.17 92 1012.8
20260508205315 22 67 11.3 19.3 0.23 4.19 4.17 93 1012.6
20260508204815 23 35 11.3 25.7 0.25 4.19 4.17 92 1012.6
20260508204316 22 22 8.0 25.7 0.30 4.19 4.17 93 1012.7
20260508203815 22 31 11.3 24.1 0.36 4.19 4.17 93 1012.6
20260508203315 22 69 8.0 25.7 0.43 4.19 4.17 93 1012.5
20260508202315 23 30 3.2 19.3 0.58 4.17 4.14 94 1012.4
20260508201816 23 32 1.6 19.3 0.66 4.14 4.11 93 1012.4
20260508200815 23 53 12.9 25.7 0.84 4.11 4.09 93 1012.4
20260508200315 23 60 11.3 22.5 0.86 4.06 4.04 93 1012.4
20260508195815 23 57 6.4 27.4 0.89 4.01 3.99 93 1012.4
20260508195315 23 44 8.0 19.3 0.97 3.96 3.94 93 1012.7
20260508194816 23 38 9.7 22.5 1.14 3.94 3.91 93 1012.6
20260508193815 23 344 8.0 16.1 1.35 3.84 3.81 93 1012.6
20260508193315 23 95 4.8 19.3 1.42 3.76 3.73 94 1012.6
20260508192816 23 198 4.8 19.3 1.47 3.68 3.66 94 1012.5
20260508192315 23 178 1.6 8.0 1.45 3.58 3.56 94 1012.6
20260508191815 23 36 3.2 8.0 1.45 3.48 3.45 94 1012.6
20260508191315 23 342 1.6 9.7 1.55 3.33 3.30 94 1012.6
20260508190315 23 224 3.2 9.7 1.75 3.20 3.17 94 1012.7
20260508185815 23 103 1.6 3.2 1.78 3.12 3.10 94 1012.7
20260508185315 23 38 0.0 12.9 1.88 3.00 2.97 94 1012.7
20260508184815 23 15 3.2 12.9 1.83 2.79 2.77 94 1012.9
20260508183815 23 320 1.6 16.1 1.85 2.49 2.46 94 1012.7
20260508183315 23 311 1.6 8.0 1.93 2.34 2.31 94 1012.8
20260508182816 23 308 0.0 4.8 1.88 2.21 2.18 95 1012.7
20260508182315 23 251 3.2 12.9 1.80 2.13 2.11 95 1012.7
20260508181315 23 223 1.6 4.8 1.52 1.78 1.75 94 1012.8
20260508180315 24 230 1.6 4.8 1.27 1.45 1.42 93 1012.8
20260508175815 24 274 1.6 9.7 1.22 1.35 1.32 93 1012.8
20260508175315 23 46 4.8 12.9 1.02 1.12 1.09 93 1012.9
20260508174816 23 53 3.2 20.9 0.91 0.97 0.94 94 1012.8
20260508174315 23 326 6.4 16.1 0.81 0.84 0.81 93 1012.7
20260508173815 24 134 1.6 9.7 0.61 0.64 0.61 93 1012.9
20260508173315 24 129 1.6 3.2 0.38 0.41 0.38 92 1012.9
20260508172816 24 277 0.0 3.2 0.30 0.33 0.30 92 1012.9
20260508172314 24 332 1.6 4.8 0.30 0.33 0.30 92 1012.9
20260508171814 24 32 0.0 8.0 0.25 0.28 0.25 92 1012.8
20260508171316 25 338 3.2 9.7 0.23 0.25 0.23 91 1012.9
20260508170815 25 37 3.2 12.9 0.18 0.20 0.18 91 1012.9
20260508170314 25 81 3.2 9.7 0.15 0.18 0.15 91 1012.7
20260508165814 25 38 1.6 9.7 0.08 0.13 0.10 90 1012.7
20260508164815 25 102 1.6 4.8 0.03 0.05 0.03 90 1012.9
20260508164314 26 142 0.0 3.2 0.00 0.03 0.00 90 1012.9
20260508163314 26 292 0.0 1.6 0.00 0.03 0.00 89 1012.9
20260508162315 26 322 0.0 3.2 0.00 0.03 0.00 89 1013.0
20260508161815 26 318 0.0 3.2 0.00 0.03 0.00 89 1013.0
20260508160815 26 199 1.6 8.0 0.00 0.03 0.00 88 1013.1
20260508160315 26 341 1.6 4.8 0.00 0.03 0.00 89 1013.2
20260508155814 26 40 3.2 9.7 0.03 0.03 0.03 89 1013.2
20260508155314 26 36 3.2 8.0 0.03 0.03 0.03 90 1013.2
20260508154816 25 344 0.0 4.8 0.00 0.00 0.00 91 1013.2
20260508153814 25 251 0.0 1.6 0.00 0.00 0.00 92 1013.3
20260508152815 25 336 1.6 4.8 0.00 0.00 0.00 92 1013.3
20260508152315 25 278 0.0 1.6 0.00 0.00 0.00 93 1013.3
20260508151815 25 262 0.0 1.6 0.00 0.00 0.00 93 1013.2
20260508150814 26 262 0.0 3.2 0.00 0.00 0.00 91 1013.3
20260508150315 26 235 0.0 1.6 0.00 0.00 0.00 91 1013.4
20260508145814 26 233 0.0 0.0 0.00 0.00 0.00 91 1013.4
20260508144815 26 233 0.0 0.0 0.00 0.00 0.00 90 1013.5
20260508144314 26 222 0.0 0.0 0.00 0.00 0.00 90 1013.5
20260508143814 26 222 0.0 0.0 0.00 0.00 0.00 89 1013.5
20260508143314 26 221 1.6 3.2 0.00 0.00 0.00 89 1013.6
20260508142814 26 298 0.0 0.0 0.00 0.00 0.00 90 1013.6
20260508142314 26 298 0.0 0.0 0.00 0.00 0.00 90 1013.5
20260508141815 26 300 0.0 0.0 0.00 0.00 0.00 90 1013.5
20260508141314 26 301 0.0 0.0 0.00 0.00 0.00 90 1013.5
20260508140814 26 304 0.0 1.6 0.00 0.00 0.00 90 1013.5
20260508135814 26 244 0.0 3.2 0.00 0.00 0.00 90 1013.3
20260508135314 26 222 0.0 0.0 0.00 0.00 0.00 89 1013.2
20260508134814 26 222 0.0 0.0 0.00 0.00 0.00 89 1013.3
20260508134314 26 222 0.0 0.0 0.00 0.00 0.00 89 1013.3
20260508132814 26 222 0.0 1.6 0.00 0.00 0.00 88 1013.0
20260508132314 26 221 0.0 3.2 0.00 0.00 0.00 87 1013.0
20260508131815 26 180 0.0 0.0 0.00 0.00 0.00 87 1012.9
20260508130814 26 180 0.0 3.2 0.00 0.00 0.00 86 1012.9
20260508130314 26 179 0.0 1.6 0.00 0.00 0.00 86 1012.9
20260508125814 26 179 1.6 3.2 0.00 0.00 0.00 87 1012.9
20260508125314 26 205 0.0 1.6 0.00 0.00 0.00 88 1012.8
20260508124814 26 218 0.0 1.6 0.00 0.00 0.00 88 1012.7
20260508124315 26 307 0.0 3.2 0.00 0.00 0.00 88 1012.6
20260508123815 26 281 0.0 3.2 0.00 0.00 0.00 88 1012.5
20260508123315 26 281 0.0 3.2 0.00 0.00 0.00 88 1012.4
20260508122814 26 336 1.6 3.2 0.00 0.00 0.00 88 1012.3
20260508122314 26 323 0.0 3.2 0.00 0.00 0.00 88 1012.3
20260508121814 26 323 0.0 3.2 0.00 0.00 0.00 88 1012.3
20260508121316 26 341 0.0 4.8 0.00 0.00 0.00 88 1012.3
20260508120815 26 303 1.6 3.2 0.00 0.00 0.00 88 1012.1
20260508120315 26 237 0.0 0.0 0.00 0.00 0.00 87 1011.9
20260508115814 26 237 0.0 0.0 0.00 0.00 0.00 87 1011.7
20260508115315 26 237 0.0 0.0 0.00 0.00 0.00 87 1011.8
20260508114814 27 224 0.0 0.0 0.00 0.00 0.00 87 1011.7
20260508114316 27 224 0.0 0.0 0.00 0.00 0.00 86 1011.7
20260508113815 27 224 0.0 0.0 0.00 0.00 0.00 87 1011.7
20260508113315 27 224 0.0 1.6 0.00 0.00 0.00 86 1011.7
20260508112814 27 220 0.0 3.2 0.00 0.00 0.00 86 1011.7
20260508112314 27 222 0.0 1.6 0.00 0.00 0.00 86 1011.6
20260508111814 27 218 0.0 3.2 0.00 0.00 0.00 85 1011.5
20260508111314 27 204 0.0 0.0 0.00 0.00 0.00 85 1011.5
20260508110814 27 194 0.0 1.6 0.00 0.00 0.00 86 1011.4
20260508110314 27 194 0.0 1.6 0.00 0.00 0.00 86 1011.3
20260508105815 28 194 0.0 0.0 0.00 0.00 0.00 82 1010.4
20260508094317 28 217 0.0 0.0 0.00 0.00 0.00 82 1010.3
20260508093816 28 217 0.0 0.0 0.00 0.00 0.00 83 1010.4
20260508093317 28 217 0.0 1.6 0.00 0.00 0.00 82 1010.4
20260508092816 28 217 0.0 0.0 0.00 0.00 0.00 82 1010.2
20260508092316 28 217 0.0 1.6 0.00 0.00 0.00 82 1010.2
20260508091816 28 217 0.0 1.6 0.00 0.00 0.00 83 1010.3
20260508091316 28 217 0.0 1.6 0.00 0.00 0.00 82 1010.3
20260508090316 28 239 0.0 0.0 0.00 0.00 0.00 81 1010.3
20260508085816 28 239 0.0 0.0 0.00 0.00 0.00 82 1010.2
20260508085315 28 239 0.0 0.0 0.00 0.00 0.00 83 1010.3
20260508084315 28 228 0.0 1.6 0.00 0.00 0.00 84 1010.2
20260508083816 27 186 0.0 0.0 0.00 0.00 0.00 85 1010.2
20260508082816 27 183 0.0 0.0 0.00 0.00 0.00 85 1010.2
20260508082316 27 183 0.0 0.0 0.00 0.00 0.00 85 1010.3
20260508080816 27 118 0.0 0.0 0.00 0.00 0.00 86 1010.4
20260508080317 27 117 0.0 0.0 0.00 0.00 0.00 87 1010.4
20260508075816 27 117 0.0 0.0 0.00 0.00 0.00 87 1010.5
20260508075317 27 116 0.0 0.0 0.00 0.00 0.00 87 1010.5
20260508074815 27 115 0.0 0.0 0.00 0.00 0.00 87 1010.6
20260508074316 27 114 0.0 0.0 0.00 0.00 0.00 88 1010.6
20260508073816 27 111 0.0 3.2 0.00 0.00 0.00 88 1010.7
20260508073317 27 177 0.0 3.2 0.00 0.00 0.00 88 1010.6
20260508072815 27 226 0.0 1.6 0.00 0.00 0.00 88 1010.6
20260508071816 27 215 1.6 4.8 0.00 0.00 0.00 87 1010.6
20260508071315 27 208 1.6 4.8 0.00 0.00 0.00 86 1010.6
20260508070817 27 218 3.2 8.0 0.00 0.00 0.00 85 1010.6
20260508070315 28 238 1.6 4.8 0.00 0.00 0.00 83 1010.7
20260508065816 28 225 3.2 8.0 0.00 0.00 0.00 81 1010.7
20260508065316 28 214 3.2 8.0 0.00 0.00 0.00 81 1010.7